Time,TemperatureF,DewpointF,PressureIn,WindDirection,WindDirectionDegrees,WindSpeedMPH,WindSpeedGustMPH,Humidity,HourlyPrecipIn,Conditions,Clouds,dailyrainin,SoftwareType,DateUTC
2013-07-27 00:00:00,60.6,60.0,30.02,South,180,1.7,-999.0,98,-99.99,,,0.00,Acu-Link.com,2013-07-27 04:00:00,
2013-07-27 00:15:00,60.4,59.8,30.02,South,180,0.0,-999.0,98,-99.99,,,0.00,Acu-Link.com,2013-07-27 04:15:00,
2013-07-27 00:30:00,59.7,59.1,30.02,NE,45,0.0,-999.0,98,-99.99,,,0.00,Acu-Link.com,2013-07-27 04:30:00,
2013-07-27 00:45:00,59.0,58.4,30.02,NE,45,0.0,-999.0,98,-99.99,,,0.00,Acu-Link.com,2013-07-27 04:45:00,
2013-07-27 01:01:00,58.5,57.9,30.02,NNE,22,0.0,-999.0,98,-99.99,,,0.00,Acu-Link.com,2013-07-27 05:01:00,
2013-07-27 01:16:00,58.1,57.5,30.01,NNE,22,0.0,-999.0,98,-99.99,,,0.00,Acu-Link.com,2013-07-27 05:16:00,
2013-07-27 01:31:00,57.4,56.8,30.01,North,0,0.0,-999.0,98,-99.99,,,0.00,Acu-Link.com,2013-07-27 05:31:00,
2013-07-27 01:47:00,57.0,56.4,30.01,SW,225,0.0,-999.0,98,-99.99,,,0.00,Acu-Link.com,2013-07-27 05:47:00,
2013-07-27 02:02:00,56.8,56.2,30.01,South,180,0.0,-999.0,98,-99.99,,,0.00,Acu-Link.com,2013-07-27 06:02:00,
2013-07-27 02:17:00,57.4,56.8,30.01,SSE,157,0.0,-999.0,98,-99.99,,,0.00,Acu-Link.com,2013-07-27 06:17:00,
2013-07-27 02:33:00,56.3,55.7,30.01,NNW,337,0.0,-999.0,98,-99.99,,,0.00,Acu-Link.com,2013-07-27 06:33:00,
2013-07-27 02:48:00,56.1,55.5,30.02,WNW,292,0.0,-999.0,98,-99.99,,,0.00,Acu-Link.com,2013-07-27 06:48:00,
2013-07-27 03:03:00,56.8,56.2,30.02,SSE,157,1.7,-999.0,98,-99.99,,,0.00,Acu-Link.com,2013-07-27 07:03:00,
2013-07-27 03:18:00,56.8,56.2,30.02,ESE,112,0.0,-999.0,98,-99.99,,,0.00,Acu-Link.com,2013-07-27 07:18:00,
2013-07-27 03:34:00,55.9,55.3,30.02,NNW,337,0.0,-999.0,98,-99.99,,,0.00,Acu-Link.com,2013-07-27 07:34:00,
2013-07-27 03:49:00,55.2,54.6,30.01,North,0,0.0,-999.0,98,-99.99,,,0.00,Acu-Link.com,2013-07-27 07:49:00,
2013-07-27 04:04:00,54.9,54.3,30.02,WNW,292,0.0,-999.0,98,-99.99,,,0.00,Acu-Link.com,2013-07-27 08:04:00,
2013-07-27 04:20:00,54.9,54.3,30.01,WNW,292,0.0,-999.0,98,-99.99,,,0.00,Acu-Link.com,2013-07-27 08:20:00,
2013-07-27 04:35:00,54.1,53.5,30.01,NNW,337,0.0,-999.0,98,-99.99,,,0.00,Acu-Link.com,2013-07-27 08:35:00,
2013-07-27 04:50:00,53.8,53.2,30.02,SSW,202,0.0,-999.0,98,-99.99,,,0.00,Acu-Link.com,2013-07-27 08:50:00,
2013-07-27 05:05:00,53.6,53.0,30.02,SE,135,0.0,-999.0,98,-99.99,,,0.00,Acu-Link.com,2013-07-27 09:05:00,
2013-07-27 05:21:00,53.2,52.6,30.03,WNW,292,0.0,-999.0,98,-99.99,,,0.00,Acu-Link.com,2013-07-27 09:21:00,
2013-07-27 05:36:00,53.4,52.8,30.04,SSE,157,0.0,-999.0,98,-99.99,,,0.00,Acu-Link.com,2013-07-27 09:36:00,
2013-07-27 06:06:00,53.2,52.6,30.04,North,0,0.0,-999.0,98,-99.99,,,0.00,Acu-Link.com,2013-07-27 10:06:00,
2013-07-27 06:21:00,53.1,52.5,30.04,SSE,157,0.0,-999.0,98,-99.99,,,0.00,Acu-Link.com,2013-07-27 10:21:00,
2013-07-27 06:37:00,53.6,53.0,30.04,NE,45,0.0,-999.0,98,-99.99,,,0.00,Acu-Link.com,2013-07-27 10:37:00,
2013-07-27 06:52:00,54.1,53.5,30.05,NNE,22,0.0,-999.0,98,-99.99,,,0.00,Acu-Link.com,2013-07-27 10:52:00,
2013-07-27 07:07:00,55.2,54.6,30.05,NNE,22,0.0,-999.0,98,-99.99,,,0.00,Acu-Link.com,2013-07-27 11:07:00,
2013-07-27 07:23:00,56.3,55.7,30.05,NNW,337,0.0,-999.0,98,-99.99,,,0.00,Acu-Link.com,2013-07-27 11:23:00,
2013-07-27 07:38:00,57.7,57.1,30.05,West,270,0.0,-999.0,98,-99.99,,,0.00,Acu-Link.com,2013-07-27 11:38:00,
2013-07-27 07:53:00,59.7,59.1,30.05,NE,45,0.0,-999.0,98,-99.99,,,0.00,Acu-Link.com,2013-07-27 11:53:00,
2013-07-27 08:09:00,60.8,60.2,30.05,SW,225,0.0,-999.0,98,-99.99,,,0.00,Acu-Link.com,2013-07-27 12:09:00,
2013-07-27 08:24:00,62.2,60.7,30.06,NW,315,1.7,-999.0,95,-99.99,,,0.00,Acu-Link.com,2013-07-27 12:24:00,
2013-07-27 08:39:00,63.7,60.1,30.06,NNE,22,2.2,-999.0,88,-99.99,,,0.00,Acu-Link.com,2013-07-27 12:39:00,
2013-07-27 08:54:00,64.9,60.6,30.06,NNE,22,2.7,-999.0,86,-99.99,,,0.00,Acu-Link.com,2013-07-27 12:54:00,
2013-07-27 09:09:00,66.0,61.0,30.05,NNE,22,2.2,-999.0,84,-99.99,,,0.00,Acu-Link.com,2013-07-27 13:09:00,
2013-07-27 09:25:00,67.3,61.6,30.05,SE,135,2.2,-999.0,82,-99.99,,,0.00,Acu-Link.com,2013-07-27 13:25:00,
2013-07-27 09:40:00,68.0,61.9,30.05,SW,225,2.2,-999.0,81,-99.99,,,0.00,Acu-Link.com,2013-07-27 13:40:00,
2013-07-27 09:55:00,69.6,62.4,30.05,ESE,112,0.0,-999.0,78,-99.99,,,0.00,Acu-Link.com,2013-07-27 13:55:00,
2013-07-27 10:10:00,72.5,62.5,30.06,South,180,2.2,-999.0,71,-99.99,,,0.00,Acu-Link.com,2013-07-27 14:10:00,
2013-07-27 10:25:00,73.2,61.6,30.05,East,90,1.1,-999.0,67,-99.99,,,0.00,Acu-Link.com,2013-07-27 14:25:00,
2013-07-27 10:41:00,73.6,63.2,30.05,East,90,2.2,-999.0,70,-99.99,,,0.00,Acu-Link.com,2013-07-27 14:41:00,
2013-07-27 11:11:00,75.6,61.6,30.05,North,0,1.1,-999.0,62,-99.99,,,0.00,Acu-Link.com,2013-07-27 15:11:00,
2013-07-27 11:27:00,76.1,61.7,30.05,NE,45,0.0,-999.0,61,-99.99,,,0.00,Acu-Link.com,2013-07-27 15:27:00,
2013-07-27 11:42:00,76.1,61.2,30.04,ESE,112,1.7,-999.0,60,-99.99,,,0.00,Acu-Link.com,2013-07-27 15:42:00,
2013-07-27 11:57:00,76.5,60.6,30.04,West,270,1.7,-999.0,58,-99.99,,,0.00,Acu-Link.com,2013-07-27 15:57:00,
2013-07-27 12:12:00,77.4,60.5,30.03,South,180,1.1,-999.0,56,-99.99,,,0.00,Acu-Link.com,2013-07-27 16:12:00,
2013-07-27 12:27:00,77.7,61.2,30.03,NNE,22,3.7,-999.0,57,-99.99,,,0.00,Acu-Link.com,2013-07-27 16:27:00,
2013-07-27 12:43:00,79.7,62.1,30.02,SSE,157,1.7,-999.0,55,-99.99,,,0.00,Acu-Link.com,2013-07-27 16:43:00,
2013-07-27 12:58:00,77.4,58.4,30.02,NE,45,1.1,-999.0,52,-99.99,,,0.00,Acu-Link.com,2013-07-27 16:58:00,
2013-07-27 13:13:00,82.9,60.0,30.02,West,270,2.7,-999.0,46,-99.99,,,0.00,Acu-Link.com,2013-07-27 17:13:00,
2013-07-27 13:29:00,81.5,58.7,30.02,West,270,2.2,-999.0,46,-99.99,,,0.00,Acu-Link.com,2013-07-27 17:29:00,
2013-07-27 13:44:00,80.1,60.3,30.01,NNE,22,1.7,-999.0,51,-99.99,,,0.00,Acu-Link.com,2013-07-27 17:44:00,
2013-07-27 13:59:00,81.5,61.0,30.01,West,270,1.1,-999.0,50,-99.99,,,0.00,Acu-Link.com,2013-07-27 17:59:00,
2013-07-27 14:15:00,79.3,60.7,30.01,South,180,2.7,-999.0,53,-99.99,,,0.00,Acu-Link.com,2013-07-27 18:15:00,
2013-07-27 14:30:00,79.2,59.5,30.01,NNE,22,2.7,-999.0,51,-99.99,,,0.00,Acu-Link.com,2013-07-27 18:30:00,
2013-07-27 14:45:00,80.4,60.0,30.01,NNW,337,2.2,-999.0,50,-99.99,,,0.00,Acu-Link.com,2013-07-27 18:45:00,
2013-07-27 15:00:00,79.5,58.6,30.00,NNW,337,1.7,-999.0,49,-99.99,,,0.00,Acu-Link.com,2013-07-27 19:00:00,
2013-07-27 15:16:00,79.7,58.8,30.00,NNE,22,1.1,-999.0,49,-99.99,,,0.00,Acu-Link.com,2013-07-27 19:16:00,
2013-07-27 15:46:00,82.6,61.5,29.99,North,0,1.7,-999.0,49,-99.99,,,0.00,Acu-Link.com,2013-07-27 19:46:00,
2013-07-27 16:02:00,80.2,59.9,29.99,WNW,292,2.2,-999.0,50,-99.99,,,0.00,Acu-Link.com,2013-07-27 20:02:00,
2013-07-27 16:17:00,80.2,60.4,29.99,NNW,337,3.7,-999.0,51,-99.99,,,0.00,Acu-Link.com,2013-07-27 20:17:00,
2013-07-27 16:32:00,79.9,60.7,29.99,NNE,22,0.0,-999.0,52,-99.99,,,0.00,Acu-Link.com,2013-07-27 20:32:00,
2013-07-27 16:48:00,79.2,60.6,29.98,WNW,292,0.0,-999.0,53,-99.99,,,0.00,Acu-Link.com,2013-07-27 20:48:00,
2013-07-27 17:03:00,79.3,61.2,29.98,SE,135,3.7,-999.0,54,-99.99,,,0.00,Acu-Link.com,2013-07-27 21:03:00,
2013-07-27 17:18:00,78.6,62.1,29.98,East,90,0.0,-999.0,57,-99.99,,,0.00,Acu-Link.com,2013-07-27 21:18:00,
2013-07-27 17:33:00,77.4,61.9,29.97,WNW,292,1.7,-999.0,59,-99.99,,,0.00,Acu-Link.com,2013-07-27 21:33:00,
2013-07-27 17:49:00,77.9,61.9,29.97,ENE,67,0.0,-999.0,58,-99.99,,,0.00,Acu-Link.com,2013-07-27 21:49:00,
2013-07-27 18:04:00,77.2,62.7,29.97,SSE,157,1.7,-999.0,61,-99.99,,,0.00,Acu-Link.com,2013-07-27 22:04:00,
2013-07-27 18:19:00,76.6,63.0,29.97,South,180,0.0,-999.0,63,-99.99,,,0.00,Acu-Link.com,2013-07-27 22:19:00,
2013-07-27 18:35:00,76.8,64.6,29.97,SSE,157,2.2,-999.0,66,-99.99,,,0.00,Acu-Link.com,2013-07-27 22:35:00,
2013-07-27 18:50:00,76.3,63.2,29.96,South,180,0.0,-999.0,64,-99.99,,,0.00,Acu-Link.com,2013-07-27 22:50:00,
2013-07-27 19:05:00,75.2,63.9,29.97,SSE,157,1.7,-999.0,68,-99.99,,,0.00,Acu-Link.com,2013-07-27 23:05:00,
2013-07-27 19:20:00,73.9,64.3,29.97,South,180,0.0,-999.0,72,-99.99,,,0.00,Acu-Link.com,2013-07-27 23:20:00,
2013-07-27 19:36:00,72.9,63.7,29.97,SE,135,0.0,-999.0,73,-99.99,,,0.00,Acu-Link.com,2013-07-27 23:36:00,
2013-07-27 20:06:00,71.4,64.5,29.97,NNW,337,0.0,-999.0,79,-99.99,,,0.00,Acu-Link.com,2013-07-28 00:06:00,
2013-07-27 20:21:00,70.7,64.2,29.98,NNW,337,0.0,-999.0,80,-99.99,,,0.00,Acu-Link.com,2013-07-28 00:21:00,
2013-07-27 20:37:00,70.0,63.9,29.98,SSE,157,0.0,-999.0,81,-99.99,,,0.00,Acu-Link.com,2013-07-28 00:37:00,
2013-07-27 20:52:00,68.9,63.9,29.99,SSE,157,0.0,-999.0,84,-99.99,,,0.00,Acu-Link.com,2013-07-28 00:52:00,
2013-07-27 21:07:00,68.0,63.6,29.99,South,180,0.0,-999.0,86,-99.99,,,0.00,Acu-Link.com,2013-07-28 01:07:00,
2013-07-27 21:23:00,67.5,64.1,29.99,NNW,337,0.0,-999.0,89,-99.99,,,0.00,Acu-Link.com,2013-07-28 01:23:00,
2013-07-27 21:38:00,66.7,63.4,29.99,SSW,202,0.0,-999.0,89,-99.99,,,0.00,Acu-Link.com,2013-07-28 01:38:00,
2013-07-27 21:53:00,66.0,63.3,29.99,SSE,157,0.0,-999.0,91,-99.99,,,0.00,Acu-Link.com,2013-07-28 01:53:00,
2013-07-27 22:09:00,65.5,63.1,29.99,South,180,0.0,-999.0,92,-99.99,,,0.00,Acu-Link.com,2013-07-28 02:09:00,
2013-07-27 22:24:00,65.1,63.3,29.99,SSE,157,0.0,-999.0,94,-99.99,,,0.00,Acu-Link.com,2013-07-28 02:24:00,
2013-07-27 22:39:00,64.2,62.4,29.99,NNE,22,0.0,-999.0,94,-99.99,,,0.00,Acu-Link.com,2013-07-28 02:39:00,
2013-07-27 22:54:00,63.9,62.1,29.99,NE,45,0.0,-999.0,94,-99.99,,,0.00,Acu-Link.com,2013-07-28 02:54:00,
2013-07-27 23:10:00,63.3,62.1,29.99,SE,135,0.0,-999.0,96,-99.99,,,0.00,Acu-Link.com,2013-07-28 03:10:00,
2013-07-27 23:25:00,63.0,61.8,29.99,East,90,0.0,-999.0,96,-99.99,,,0.00,Acu-Link.com,2013-07-28 03:25:00,
2013-07-27 23:40:00,62.2,61.3,29.99,NNE,22,0.0,-999.0,97,-99.99,,,0.00,Acu-Link.com,2013-07-28 03:40:00,
2013-07-27 23:55:00,62.1,61.5,29.99,West,270,0.0,-999.0,98,-99.99,,,0.00,Acu-Link.com,2013-07-28 03:55:00,